weather.gov     
National Weather Service

Terminal Aerodrome Forecast
NWS Homepage
This page is being discontinued on March 12, 2014.
The same data is available at this site. Please update your bookmarks.
Thank you, and we apologize for the inconvenience.
Please send an email to SR-SRH.Webmaster@noaa.gov with any concerns.


Current Version
Previous Version:    01  02  03  04  05  06  07  08  09  10  11  12  13  14  15  16  17  18  19  20  21  22  23  24  25  26  27  
[Printable]
584
FTUS44 KSHV 291100
TAFELD
TAF
KELD 291127Z 2912/3012 VRB03KT P6SM BKN120 BKN250
     FM291400 17005KT P6SM BKN130 BKN250
     FM291600 17006KT P6SM SCT035 SCT130 BKN250
     FM291800 16007KT P6SM VCTS SCT050CB SCT130 BKN250
     FM300000 15005KT P6SM VCTS SCT050CB BKN130 OVC250
      TEMPO 3009/3012 4SM BR BKN015=


U.S. Dept. of Commerce
NOAA National Weather Service
1325 East West Highway
Silver Spring, MD 20910
E-mail: w-nws.webmaster@noaa.gov
Page last modified: May 16, 2007
NATIONAL WEATHER SERVICE: for Safety, for Work, for Fun - FOR LIFE